MTN8128 TIST-TJSJ

Flight info

Callsign MTN8128
Flight time 0h 26m
Altitude 8000
Route PALCO7 PALCO RTE6 SJU
Aircraft C408/M-SDFGRY/S

Departure

Time 2026-04-25 19:32
Airport Cyril E. King Airport (TIST)

Arrival

Time 2026-04-25 19:59
Airport Luis Munoz Marin International Airport (TJSJ)
Time Latitude Longitude Altitude Speed Heading
2026-04-25 19:24 18.33177 -64.97161 19 ft 0 kts 271°
2026-04-25 19:27 18.33181 -64.97168 22 ft 5 kts 320°
2026-04-25 19:27 18.33287 -64.97187 19 ft 12 kts 334°
2026-04-25 19:27 18.33352 -64.97256 20 ft 17 kts 310°
2026-04-25 19:28 18.33440 -64.97360 23 ft 17 kts 321°
2026-04-25 19:28 18.33543 -64.97406 24 ft 14 kts
2026-04-25 19:28 18.33614 -64.97439 22 ft 12 kts 281°
2026-04-25 19:28 18.33610 -64.97551 23 ft 18 kts 268°
2026-04-25 19:29 18.33603 -64.97696 24 ft 18 kts 267°
2026-04-25 19:29 18.33598 -64.97800 25 ft 15 kts 269°
2026-04-25 19:29 18.33595 -64.97929 26 ft 20 kts 269°
2026-04-25 19:29 18.33594 -64.97954 26 ft 1 kts 268°
2026-04-25 19:30 18.33593 -64.97992 27 ft 10 kts 268°
2026-04-25 19:30 18.33588 -64.98090 27 ft 16 kts 267°
2026-04-25 19:30 18.33582 -64.98226 28 ft 18 kts 269°
2026-04-25 19:30 18.33590 -64.98309 28 ft 2 kts 302°
2026-04-25 19:31 18.33639 -64.98336 26 ft 12 kts
2026-04-25 19:31 18.33690 -64.98284 27 ft 15 kts 89°
2026-04-25 19:31 18.33704 -64.97906 25 ft 92 kts 88°
2026-04-25 19:31 18.33749 -64.97024 49 ft 142 kts 91°
2026-04-25 19:32 18.33842 -64.96001 550 ft 139 kts 84°
2026-04-25 19:32 18.33781 -64.95027 1056 ft 128 kts 117°
2026-04-25 19:32 18.33188 -64.94260 1274 ft 145 kts 149°
2026-04-25 19:32 18.32578 -64.93954 1419 ft 151 kts 160°
2026-04-25 19:33 18.31212 -64.94061 1791 ft 149 kts 220°
2026-04-25 19:33 18.30803 -64.94981 2438 ft 138 kts 258°
2026-04-25 19:33 18.30678 -64.95954 3009 ft 130 kts 252°
2026-04-25 19:33 18.30299 -64.96779 3546 ft 124 kts 236°
2026-04-25 19:34 18.29849 -64.97562 4013 ft 125 kts 234°
2026-04-25 19:34 18.29370 -64.98332 4468 ft 127 kts 234°
2026-04-25 19:34 18.28877 -64.99108 4886 ft 131 kts 233°
2026-04-25 19:34 18.28358 -64.99923 5302 ft 134 kts 233°
2026-04-25 19:35 18.27836 -65.00740 5728 ft 135 kts 233°
2026-04-25 19:35 18.27307 -65.01563 6145 ft 136 kts 234°
2026-04-25 19:35 18.26774 -65.02394 6555 ft 137 kts 234°
2026-04-25 19:35 18.26238 -65.03231 6948 ft 138 kts 234°
2026-04-25 19:36 18.25723 -65.04086 7349 ft 139 kts 244°
2026-04-25 19:36 18.25514 -65.05072 7745 ft 142 kts 264°
2026-04-25 19:36 18.25642 -65.06130 7997 ft 157 kts 279°
2026-04-25 19:36 18.25884 -65.07325 8012 ft 175 kts 278°
2026-04-25 19:37 18.26149 -65.08623 8011 ft 187 kts 279°
2026-04-25 19:37 18.26426 -65.09986 8005 ft 193 kts 279°
2026-04-25 19:37 18.26709 -65.11383 8001 ft 196 kts 279°
2026-04-25 19:37 18.26993 -65.12782 7998 ft 195 kts 279°
2026-04-25 19:38 18.27275 -65.14176 8000 ft 195 kts 279°
2026-04-25 19:38 18.27557 -65.15574 7999 ft 195 kts 279°
2026-04-25 19:38 18.27839 -65.16970 7995 ft 195 kts 278°
2026-04-25 19:38 18.28122 -65.18366 7998 ft 195 kts 279°
2026-04-25 19:39 18.28403 -65.19757 8000 ft 194 kts 279°
2026-04-25 19:39 18.28684 -65.21149 8001 ft 195 kts 279°
2026-04-25 19:39 18.28965 -65.22540 8001 ft 194 kts 278°
2026-04-25 19:39 18.29246 -65.23927 8002 ft 193 kts 279°
2026-04-25 19:40 18.29531 -65.25309 7998 ft 193 kts 279°
2026-04-25 19:40 18.29819 -65.26691 7996 ft 194 kts 279°
2026-04-25 19:40 18.30106 -65.28077 7994 ft 194 kts 279°
2026-04-25 19:40 18.30392 -65.29460 7994 ft 193 kts 279°
2026-04-25 19:41 18.30681 -65.30847 7983 ft 196 kts 279°
2026-04-25 19:41 18.30963 -65.32243 7988 ft 194 kts 279°
2026-04-25 19:41 18.31257 -65.33619 7984 ft 192 kts 279°
2026-04-25 19:41 18.31352 -65.34082 7981 ft 191 kts 279°
2026-04-25 19:42 18.31812 -65.36331 7985 ft 188 kts 279°
2026-04-25 19:42 18.32090 -65.37674 7985 ft 188 kts 279°
2026-04-25 19:42 18.32367 -65.39018 7981 ft 188 kts 279°
2026-04-25 19:42 18.32644 -65.40362 7984 ft 188 kts 279°
2026-04-25 19:43 18.32920 -65.41702 7981 ft 187 kts 279°
2026-04-25 19:43 18.33196 -65.43042 7984 ft 187 kts 279°
2026-04-25 19:43 18.33472 -65.44379 7985 ft 187 kts 279°
2026-04-25 19:43 18.33747 -65.45715 7983 ft 187 kts 279°
2026-04-25 19:44 18.34023 -65.47055 7984 ft 187 kts 279°
2026-04-25 19:44 18.34298 -65.48394 7982 ft 187 kts 279°
2026-04-25 19:44 18.34573 -65.49731 7983 ft 187 kts 279°
2026-04-25 19:44 18.34847 -65.51063 7978 ft 186 kts 279°
2026-04-25 19:45 18.35118 -65.52378 7982 ft 186 kts 279°
2026-04-25 19:45 18.35391 -65.53709 7982 ft 186 kts 279°
2026-04-25 19:45 18.35668 -65.55054 7981 ft 186 kts 279°
2026-04-25 19:45 18.35937 -65.56365 7977 ft 185 kts 279°
2026-04-25 19:46 18.36208 -65.57683 7982 ft 185 kts 279°
2026-04-25 19:46 18.36481 -65.59017 7978 ft 186 kts 279°
2026-04-25 19:46 18.36753 -65.60345 7980 ft 186 kts 279°
2026-04-25 19:46 18.37026 -65.61673 7979 ft 186 kts 278°
2026-04-25 19:47 18.37295 -65.63000 7979 ft 185 kts 278°
2026-04-25 19:47 18.37569 -65.64323 7976 ft 185 kts 279°
2026-04-25 19:47 18.37840 -65.65644 7970 ft 185 kts 278°
2026-04-25 19:47 18.38110 -65.66964 7971 ft 184 kts 278°
2026-04-25 19:48 18.38379 -65.68281 7969 ft 184 kts 279°
2026-04-25 19:48 18.38649 -65.69600 7966 ft 184 kts 279°
2026-04-25 19:48 18.38919 -65.70920 7966 ft 185 kts 278°
2026-04-25 19:48 18.39188 -65.72236 8005 ft 182 kts 278°
2026-04-25 19:49 18.39454 -65.73538 8004 ft 182 kts 279°
2026-04-25 19:49 18.39544 -65.73979 8003 ft 183 kts 279°
2026-04-25 19:49 18.39990 -65.76166 8003 ft 184 kts 279°
2026-04-25 19:49 18.40260 -65.77485 8002 ft 185 kts 279°
2026-04-25 19:50 18.40799 -65.80131 8003 ft 185 kts 279°
2026-04-25 19:50 18.41071 -65.81460 8002 ft 186 kts 278°
2026-04-25 19:50 18.41158 -65.82803 7999 ft 183 kts 267°
2026-04-25 19:51 18.41128 -65.84145 8000 ft 184 kts 266°
2026-04-25 19:51 18.41095 -65.85490 7997 ft 184 kts 266°
2026-04-25 19:51 18.41058 -65.86836 7999 ft 184 kts 266°
2026-04-25 19:51 18.41020 -65.88184 8001 ft 185 kts 266°
2026-04-25 19:52 18.40985 -65.89536 7977 ft 186 kts 266°
2026-04-25 19:52 18.40949 -65.90871 7734 ft 181 kts 266°
2026-04-25 19:52 18.40915 -65.92178 7543 ft 177 kts 266°
2026-04-25 19:52 18.40878 -65.93489 7303 ft 178 kts 266°
2026-04-25 19:53 18.40838 -65.94784 7070 ft 180 kts 266°
2026-04-25 19:53 18.40797 -65.96101 6833 ft 180 kts 266°
2026-04-25 19:53 18.40764 -65.97415 6605 ft 179 kts 266°
2026-04-25 19:53 18.40599 -65.98702 6370 ft 176 kts 256°
2026-04-25 19:54 18.40347 -65.99959 6084 ft 175 kts 256°
2026-04-25 19:54 18.40097 -66.01203 5713 ft 173 kts 256°
2026-04-25 19:54 18.39844 -66.02434 5343 ft 172 kts 256°
2026-04-25 19:54 18.39763 -66.02849 5215 ft 171 kts 256°
2026-04-25 19:55 18.39565 -66.04881 4615 ft 168 kts 266°
2026-04-25 19:55 18.39551 -66.06099 4240 ft 163 kts 266°
2026-04-25 19:55 18.39533 -66.07267 3866 ft 156 kts 266°
2026-04-25 19:55 18.39768 -66.08348 3471 ft 156 kts 302°
2026-04-25 19:56 18.40694 -66.08920 3089 ft 161 kts 350°
2026-04-25 19:56 18.41773 -66.08813 2752 ft 152 kts
2026-04-25 19:56 18.42716 -66.08290 2154 ft 161 kts 43°
2026-04-25 19:56 18.43285 -66.07355 1751 ft 144 kts 72°
2026-04-25 19:57 18.43438 -66.06342 1259 ft 137 kts 92°
2026-04-25 19:57 18.43382 -66.05410 981 ft 126 kts 95°
2026-04-25 19:57 18.43308 -66.04526 743 ft 116 kts 89°
2026-04-25 19:57 18.43264 -66.03705 526 ft 109 kts 82°
2026-04-25 19:58 18.43334 -66.02924 321 ft 107 kts 80°
2026-04-25 19:58 18.43345 -66.02117 173 ft 114 kts 82°
2026-04-25 19:58 18.43342 -66.01293 40 ft 112 kts 80°
2026-04-25 19:58 18.43344 -66.00532 17 ft 99 kts 81°
2026-04-25 19:59 18.43375 -66.00023 16 ft 45 kts 94°
2026-04-25 19:59 18.43364 -65.99689 17 ft 36 kts 90°
2026-04-25 19:59 18.43388 -65.99565 17 ft 6 kts 36°
2026-04-25 19:59 18.43458 -65.99548 16 ft 14 kts
2026-04-25 20:00 18.43543 -65.99546 15 ft 10 kts
2026-04-25 20:00 18.43569 -65.99544 15 ft 12 kts
2026-04-25 20:00 18.43727 -65.99502 15 ft 12 kts 40°
2026-04-25 20:00 18.43732 -65.99431 15 ft 7 kts 133°
2026-04-25 20:01 18.43703 -65.99429 15 ft 0 kts 184°